GFSGBSN_con_3kmhel_132.txt.gz
Helicity
179 181 73 95 110 97 86 108 83 70 56 73 43 21 46 26 23 26 32 30 34 46 61 49 40 48 1 16 -7 -1 -8 -23 13 24 19 19 35 25 38 31 29 71 64 74 82 79 77
101 136 124 92 81 100 85 96 76 65 81 75 82 53 -25 23 33 37 28 44 31 36 43 44 35 19 3 16 18 24 2 1 6 10 22 37 41 17 43 41 78 89 40 -5 1 14 65
83 96 98 131 114 87 120 116 110 104 118 90 64 43 37 28 34 34 41 46 42 36 33 22 31 0 31 -3 51 43 24 6 0 8 14 7 41 72 62 42 76 26 40 43 35 64 84
130 131 143 151 157 161 104 132 125 108 96 99 79 53 41 58 51 30 46 52 47 34 27 18 37 28 22 30 -2 14 26 3 10 5 40 14 63 59 87 65 79 85 124 122 175 234 86
115 126 134 155 159 169 183 130 102 87 104 97 95 79 57 67 53 53 41 49 45 43 22 20 39 35 -4 14 23 1 56 32 33 25 33 51 86 58 107 114 102 121 131 140 214 179 113
115 104 89 137 149 147 178 197 190 140 65 93 76 64 88 91 70 88 73 45 59 55 55 41 30 49 45 35 -3 20 41 67 61 45 47 82 116 98 109 152 99 142 136 156 154 70 65
145 152 194 145 128 152 151 157 176 209 147 48 94 85 72 122 103 159 153 91 73 50 66 73 106 81 62 67 115 71 106 125 119 82 56 72 165 71 55 106 117 162 179 163 124 55 64
177 168 139 151 157 164 175 160 174 171 180 121 89 125 129 91 120 124 126 108 97 100 44 64 48 97 103 139 198 182 227 168 125 79 83 113 137 69 124 149 183 148 141 121 54 32 107
157 131 109 124 146 147 172 166 169 175 177 174 127 155 180 143 116 106 115 100 119 100 1 -47 12 73 86 130 165 124 220 173 171 121 74 93 123 74 69 111 168 146 161 105 104 88 91
109 120 101 102 125 139 154 170 140 168 181 182 121 176 207 163 172 143 154 148 128 89 56 -2 52 63 21 54 103 57 90 149 157 84 56 95 49 135 157 164 145 122 66 72 101 100 84
108 115 109 106 118 138 153 162 125 160 170 167 109 161 151 162 162 171 176 129 94 79 196 107 90 29 62 78 80 113 82 151 121 125 135 124 69 65 127 94 123 112 106 114 84 72 70
106 97 97 110 119 132 141 154 112 136 160 146 112 139 150 180 187 155 119 78 98 251 283 176 104 92 107 102 117 99 116 144 83 83 85 89 74 75 86 51 95 91 81 90 80 118 151
105 97 98 98 99 108 123 136 121 109 125 121 101 103 156 189 179 119 114 128 241 318 173 151 165 141 102 82 82 59 80 111 88 90 93 93 82 59 51 98 74 144 143 112 101 146 139
107 116 103 102 101 92 104 119 129 115 108 116 97 125 165 148 147 123 142 231 269 158 167 246 216 133 102 85 34 10 76 99 63 77 111 112 120 86 84 62 95 177 167 170 140 138 122
104 115 117 116 111 112 108 118 107 114 97 126 164 183 153 140 141 126 189 265 221 202 177 215 143 142 145 99 103 111 80 90 60 88 87 109 119 66 47 82 118 131 144 72 153 128 103
107 110 114 117 116 120 110 120 108 125 112 131 215 203 168 146 169 182 237 206 198 176 175 165 148 127 143 135 101 109 118 125 111 90 187 169 133 89 43 14 75 121 114 151 191 145 94
101 94 104 110 111 104 103 114 119 123 113 126 214 240 183 161 204 245 260 270 213 136 164 144 134 138 143 115 115 149 161 195 194 184 250 211 299 182 72 82 82 142 111 113 123 174 88
97 101 95 116 124 120 107 105 115 114 115 180 234 284 172 182 290 283 268 208 157 108 122 139 124 114 122 126 113 136 168 207 146 152 171 204 239 178 80 51 14 75 94 56 122 84 182
73 94 93 91 120 116 130 115 124 116 141 246 328 304 178 262 283 277 243 209 179 213 224 202 169 130 136 133 157 106 128 124 118 127 140 162 107 41 24 70 63 190 134 217 172 177 134
102 79 73 88 101 111 121 135 111 116 98 302 303 333 309 246 269 221 241 188 202 171 147 152 195 220 186 173 154 142 130 83 80 123 165 175 173 126 65 73 -35 35 78 62 96 152 136
92 92 67 74 84 91 99 111 119 106 52 256 345 287 333 302 231 254 262 200 151 155 158 148 178 163 149 135 197 146 80 110 102 109 157 156 97 106 56 44 -4 15 22 9 27 133 90
76 72 66 58 46 73 99 74 82 96 34 227 373 368 383 298 236 194 212 197 162 183 175 177 152 98 99 140 190 108 120 121 119 118 135 158 88 79 1 23 19 37 13 39 126 127 136
63 72 71 47 49 69 69 82 74 58 99 266 294 332 268 234 253 213 205 178 185 147 117 91 66 113 71 8 75 147 117 75 78 94 118 126 96 111 54 74 60 56 54 111 155 136 148
70 63 66 56 33 68 75 90 82 68 82 271 317 356 372 309 283 276 192 127 126 102 85 121 70 91 21 69 106 170 161 115 125 91 147 137 120 151 98 103 81 11 65 48 62 77 184
67 72 75 60 55 84 95 101 79 67 67 136 252 302 331 305 236 155 151 179 64 66 47 30 -8 5 75 156 163 175 145 114 136 81 121 196 161 88 148 116 80 51 95 81 45 52 114
52 50 52 66 53 99 110 93 86 79 36 109 106 218 296 201 182 203 143 81 110 134 125 78 49 43 143 161 163 106 34 35 24 11 96 150 164 90 107 88 62 29 52 72 89 62 121
55 54 56 62 77 74 99 87 91 73 63 113 86 89 283 278 202 138 145 100 107 114 94 78 103 154 169 210 164 114 105 63 47 17 64 122 78 51 46 95 86 90 111 108 91 46 144
52 54 59 68 79 66 76 83 77 71 49 117 49 72 136 231 184 67 81 95 154 116 116 67 165 187 203 130 85 132 119 110 106 14 32 106 180 139 119 70 82 127 116 114 91 159 182
49 52 59 70 78 89 90 98 92 73 50 95 75 78 146 93 109 86 75 78 20 27 45 82 101 79 129 149 127 133 130 104 113 -2 83 125 142 101 93 60 125 96 95 124 98 158 200

GFSGBSN_con_3kmhel_135.txt.gz
Helicity
163 163 163 115 87 81 70 68 80 70 76 65 37 34 18 24 26 40 50 45 47 49 50 50 62 65 2 44 -4 -16 -3 7 3 9 19 23 18 7 24 29 18 53 64 58 51 33 53
165 157 156 170 146 85 96 87 83 75 82 73 60 60 58 48 24 19 12 15 41 51 45 33 33 32 15 39 10 3 11 -1 11 25 28 8 11 -5 23 28 49 59 10 2 10 56 82
120 133 141 154 114 99 75 76 83 88 83 78 86 93 66 49 2 46 22 17 26 40 51 46 31 2 32 5 35 24 21 18 6 20 25 6 12 31 33 30 37 30 36 34 94 83 122
5 101 83 126 104 121 78 66 73 73 83 91 105 111 53 49 41 54 50 43 37 34 37 41 44 37 19 37 11 -15 36 11 10 10 3 -2 28 34 51 41 68 70 93 77 150 232 184
166 148 169 97 138 131 169 98 75 83 78 110 123 90 57 36 39 36 46 45 55 54 30 42 55 61 16 19 23 -19 22 14 36 33 10 11 50 43 72 56 72 94 86 118 152 201 208
158 187 184 183 122 100 100 115 147 112 87 98 68 100 75 45 39 52 56 61 61 88 85 83 80 85 50 52 41 11 50 57 62 45 36 45 70 48 85 84 60 115 120 121 128 184 163
161 179 226 169 173 119 120 123 126 166 136 114 90 85 91 60 59 79 99 99 91 83 79 68 98 95 65 63 93 36 111 122 89 75 49 48 89 42 74 84 107 124 128 129 132 122 121
183 161 196 190 190 159 149 151 119 146 148 121 103 93 98 110 85 108 139 117 123 109 63 48 57 139 100 171 145 107 169 145 147 89 84 109 78 86 84 108 135 157 142 120 140 80 104
189 201 150 145 158 182 131 134 129 136 152 156 106 102 135 163 163 182 181 144 113 74 30 -6 33 43 77 143 134 71 166 190 175 126 135 106 88 72 68 77 69 124 179 167 137 126 96
148 146 131 119 126 133 139 141 117 130 157 177 126 144 196 179 180 151 185 143 122 83 84 36 71 77 46 84 119 30 39 83 107 71 71 81 50 78 105 69 85 136 92 128 126 144 137
118 127 118 109 112 125 121 120 101 135 132 156 112 163 173 180 159 159 174 140 120 96 163 96 101 48 91 94 90 101 36 96 111 122 112 47 81 44 -7 30 85 78 70 87 103 117 122
125 113 107 103 100 105 118 131 120 134 140 140 127 154 174 198 153 151 149 142 134 236 252 183 148 148 150 110 98 95 96 69 53 79 92 89 87 48 95 61 78 69 95 107 125 141 217
97 103 99 99 110 122 127 142 130 124 154 141 151 132 195 159 160 119 127 171 297 320 242 209 211 191 171 114 89 73 89 77 84 118 110 97 76 67 68 68 50 125 159 187 191 210 144
99 97 90 93 99 109 109 125 115 108 141 113 147 176 212 212 184 157 167 258 323 267 247 280 220 177 113 85 60 72 92 74 47 116 122 86 133 23 49 54 65 84 151 209 195 174 122
92 102 101 84 84 95 99 104 114 92 107 124 170 213 198 202 191 170 230 308 270 219 213 227 167 143 133 112 99 76 68 98 57 107 78 78 69 -6 7 9 44 65 128 86 164 153 161
106 122 122 92 94 79 88 97 102 103 116 127 190 224 206 193 194 224 250 267 200 191 245 202 166 155 131 129 122 108 67 83 89 61 103 115 130 65 67 48 41 84 72 147 146 202 183
95 109 107 107 110 90 123 99 112 117 113 126 191 228 185 172 229 266 257 257 225 226 186 172 145 151 121 108 88 78 101 122 144 163 144 146 143 105 64 65 90 34 102 234 129 120 158
76 88 104 94 108 107 105 105 116 122 113 177 255 269 242 234 326 279 239 263 216 174 118 127 121 114 106 102 76 85 101 135 119 123 144 119 98 91 49 0 48 106 116 125 57 124 162
96 76 93 89 93 107 114 99 113 106 122 258 333 320 222 270 290 275 297 252 216 156 146 146 130 84 97 75 99 68 89 89 67 97 124 78 120 95 29 44 88 86 160 74 27 86 176
97 64 62 75 74 104 119 112 108 89 101 261 283 332 313 230 278 288 316 247 202 140 132 165 147 172 158 119 116 117 102 81 92 83 82 90 139 135 103 92 45 15 35 79 12 -86 62
82 99 48 68 64 65 89 96 111 96 61 242 304 292 315 297 263 259 243 180 172 215 164 147 167 148 136 140 151 155 126 132 109 51 78 80 106 97 100 78 57 1 -11 -3 63 105 59
91 82 98 80 77 70 86 108 107 93 58 224 306 348 376 309 229 206 186 198 211 166 195 152 144 128 76 153 151 120 95 115 125 94 99 111 121 103 92 78 20 0 -22 3 76 79 116
61 80 91 100 68 69 73 73 86 95 90 239 350 320 248 224 189 212 187 215 169 159 130 126 117 99 101 67 87 68 70 85 110 100 90 109 97 88 12 11 -18 -15 12 84 119 111 108
61 69 71 61 77 59 62 72 60 67 66 225 322 368 334 280 258 200 163 124 144 123 122 128 86 119 100 68 73 94 100 91 87 109 143 136 130 99 65 47 -5 19 69 61 60 57 100
71 65 62 63 79 78 55 51 62 47 73 149 194 304 326 231 195 203 196 157 101 95 70 66 53 69 74 99 164 147 157 162 143 119 123 152 230 179 133 94 49 4 73 94 56 37 93
83 77 72 71 80 82 77 56 63 57 47 129 58 143 288 287 199 179 171 170 162 132 148 98 70 110 87 144 165 165 150 134 118 85 39 39 174 195 167 72 62 18 53 40 11 62 89
80 74 80 64 68 71 69 46 62 50 67 164 117 12 170 256 260 202 255 185 152 140 155 168 105 83 94 182 146 144 143 102 110 62 36 51 105 62 145 159 71 52 75 95 75 47 62
80 80 77 78 77 78 66 54 61 59 102 151 117 36 42 167 206 262 220 202 197 162 186 133 129 120 144 146 126 117 136 96 25 100 91 74 57 65 71 49 -6 93 117 108 75 69 76
79 84 88 77 74 68 60 60 86 124 76 124 146 119 60 -18 138 233 221 130 102 141 150 95 90 62 41 96 110 98 82 38 13 42 79 64 125 54 90 81 70 61 49 65 78 73 121

GFSGBSN_con_3kmhel_138.txt.gz
Helicity
157 157 161 122 94 84 79 78 68 65 60 55 60 64 37 22 -2 31 51 53 59 52 47 29 23 57 31 44 16 12 18 7 -2 16 43 31 27 23 46 30 24 40 41 39 27 20 37
227 196 171 196 184 154 100 77 80 87 81 76 74 63 50 37 38 35 44 50 44 36 43 25 24 25 20 58 32 21 24 15 21 35 16 2 3 -2 29 39 36 29 35 43 28 40 69
268 238 175 159 164 155 173 126 83 84 88 75 74 72 47 67 39 51 45 52 49 43 49 36 27 1 44 30 47 45 14 29 19 21 14 -1 1 22 14 28 22 34 50 53 80 69 62
106 76 73 93 118 135 150 168 108 88 82 75 80 62 74 70 59 49 32 64 61 54 47 31 29 19 38 42 14 -2 24 12 15 32 21 22 25 34 32 25 58 58 58 67 89 148 139
101 73 101 102 122 119 114 139 158 122 81 71 82 80 103 83 69 43 34 43 53 43 31 37 50 49 38 30 33 32 13 28 41 43 40 37 37 44 48 42 59 78 56 79 121 157 164
105 54 16 140 168 165 153 137 148 138 80 74 79 82 113 104 63 63 51 53 54 67 67 55 91 84 36 62 34 57 39 65 73 68 75 78 58 74 85 76 44 68 88 96 86 96 137
142 108 103 74 94 135 145 142 132 178 82 82 80 79 112 92 64 86 71 88 91 68 49 56 93 91 85 87 125 84 72 121 107 85 64 80 73 61 87 84 83 87 95 88 96 80 118
142 138 143 137 144 151 173 146 132 183 136 97 95 94 112 97 135 100 92 99 91 72 46 47 56 129 170 200 152 116 130 154 144 73 102 119 50 117 112 90 90 108 123 104 97 75 160
166 156 155 160 144 149 157 170 134 117 94 124 110 94 121 151 148 145 117 103 109 94 46 44 117 88 73 133 112 89 139 173 161 130 112 45 79 89 88 90 102 118 121 136 114 130 138
173 185 176 133 117 120 134 137 147 127 112 129 124 109 139 141 143 136 144 122 111 66 86 46 67 76 80 77 109 56 48 93 105 77 74 66 52 70 73 91 99 121 51 85 118 162 139
131 145 130 122 110 95 116 116 119 106 124 140 143 120 151 229 182 141 132 102 115 98 177 99 100 44 78 101 96 119 34 64 84 86 110 79 88 90 81 83 87 59 78 78 98 151 192
122 123 135 129 120 106 104 95 109 100 117 135 113 121 199 233 191 130 124 156 157 209 239 157 129 135 161 131 118 88 89 71 54 77 90 66 68 62 61 48 81 87 88 151 181 191 252
92 122 123 120 117 107 104 107 131 102 126 127 105 133 190 195 152 143 144 212 260 289 222 208 218 220 204 180 147 122 100 83 77 97 105 87 72 24 22 69 63 69 143 193 205 222 166
120 95 112 115 111 114 110 113 134 110 137 143 180 224 224 194 148 158 205 279 302 236 311 267 226 218 208 155 150 105 109 97 76 126 93 100 155 71 45 58 48 62 64 166 217 194 178
97 120 94 97 101 109 99 106 142 119 148 170 198 248 232 204 168 154 255 309 280 275 263 246 273 245 206 162 114 111 86 86 69 73 78 83 73 50 69 -5 34 65 117 40 121 148 203
76 87 92 94 99 93 98 100 117 104 133 145 226 233 203 188 174 201 253 260 242 197 241 252 208 172 154 148 142 124 87 73 64 61 77 104 119 73 38 34 14 61 55 120 181 199 202
88 81 99 98 89 83 86 84 107 97 101 120 225 248 205 179 189 213 270 304 197 193 217 232 187 190 178 158 144 114 97 79 89 103 94 123 144 107 91 41 46 74 92 133 138 175 183
99 96 80 126 106 87 79 75 77 90 93 161 253 270 204 260 296 299 302 282 202 194 176 151 150 166 150 117 101 93 77 84 96 115 142 118 119 104 56 36 50 63 114 141 156 148 124
103 96 97 95 85 92 96 98 92 85 127 219 269 273 180 269 266 258 269 253 219 173 150 144 138 114 106 84 99 52 55 13 69 96 127 107 165 124 102 110 119 103 68 101 126 112 101
127 121 108 100 96 105 102 89 99 90 145 286 262 252 236 216 240 253 309 234 193 166 140 182 154 143 131 106 101 81 68 57 74 64 67 106 156 162 148 123 100 103 112 96 106 136 113
142 132 121 111 100 94 86 104 80 66 105 224 330 292 276 222 214 257 232 131 156 148 144 124 136 127 130 110 104 106 99 105 92 89 131 156 148 144 131 124 115 77 95 96 98 140 137
155 260 147 100 108 90 68 70 76 48 83 214 257 292 352 307 247 277 228 175 157 146 160 165 137 85 92 120 104 100 77 98 106 155 174 185 142 126 119 106 100 69 86 80 22 22 36
62 16 46 84 87 77 74 84 81 70 102 264 259 243 227 212 217 192 177 219 143 170 115 109 99 108 115 75 93 87 110 121 151 150 166 178 129 146 108 72 49 36 63 65 98 83 109
82 45 34 86 81 63 73 78 87 78 103 193 309 306 244 209 191 166 137 146 155 107 112 117 101 127 94 148 98 119 129 125 139 141 144 167 167 138 137 127 93 22 33 26 12 25 48
155 123 88 104 118 103 80 96 97 73 91 150 125 232 262 217 195 170 163 110 85 104 117 107 78 88 103 134 169 143 144 144 115 137 125 170 201 172 182 125 98 77 41 101 39 24 44
85 76 80 95 113 115 108 70 79 44 84 162 117 145 234 181 152 189 130 144 121 113 125 89 79 119 148 164 183 163 146 119 135 120 66 129 145 161 176 113 92 89 50 13 40 32 31
67 70 69 60 58 76 81 83 67 60 70 155 125 43 48 191 142 192 235 176 148 141 110 113 121 183 167 177 157 154 154 172 158 126 106 123 124 151 140 108 143 134 140 113 39 15 28
93 91 79 81 89 72 63 76 85 61 65 131 136 97 46 80 155 209 139 175 209 177 149 98 164 198 200 163 159 168 149 103 130 119 118 120 93 98 81 59 19 131 160 71 35 45 35
107 101 98 87 78 87 90 78 75 83 81 97 182 191 142 37 85 148 242 222 141 106 130 137 156 194 141 151 140 139 144 128 97 114 96 111 196 96 124 44 83 86 63 22 34 40 47

GFSGBSN_con_3kmhel_144.txt.gz
Helicity
81 79 83 80 76 74 76 74 72 71 77 72 67 57 50 45 39 51 27 34 40 31 23 20 50 71 17 22 39 53 16 15 9 21 54 41 74 35 50 41 31 31 43 30 28 20 15
108 103 97 88 84 80 93 91 95 85 81 83 74 63 51 54 54 57 57 44 69 42 28 16 38 35 7 17 62 33 31 27 37 34 45 48 41 36 59 42 36 47 31 21 34 40 52
112 120 118 108 117 118 150 169 174 147 95 109 97 89 82 75 75 69 63 34 49 37 24 21 30 19 12 17 56 41 39 37 34 31 39 39 32 32 42 37 51 41 33 45 60 76 96
259 299 280 252 247 220 226 251 196 241 124 133 107 115 106 94 94 71 46 33 41 22 25 45 35 22 35 67 47 26 35 39 21 23 32 34 32 48 45 52 40 41 43 31 95 80 116
199 223 232 251 248 210 232 176 186 194 125 104 111 106 89 87 107 94 67 56 59 37 38 50 45 48 40 50 71 77 42 36 23 35 57 50 35 61 36 50 34 47 82 66 77 131 130
133 191 225 173 195 208 103 85 83 100 90 121 121 68 80 79 95 118 92 91 90 34 36 62 85 64 61 138 94 56 40 7 34 61 54 64 53 45 32 58 108 169 78 68 81 137 122
55 25 0 56 25 11 28 33 36 77 76 116 131 78 52 77 106 128 132 119 62 -4 40 86 156 101 76 49 7 30 64 60 55 78 95 109 87 85 140 113 140 122 90 82 93 73 124
9 31 69 31 -14 12 57 23 89 133 142 139 177 129 107 100 130 163 138 174 175 132 96 58 44 39 40 77 92 86 102 99 101 108 135 75 83 152 134 112 102 84 94 113 93 135 104
96 65 112 164 111 144 88 91 114 107 112 127 112 118 114 154 148 186 183 162 97 63 113 73 56 74 68 74 71 52 87 111 102 110 99 102 179 115 106 115 114 89 105 99 99 106 28
99 84 77 88 103 112 124 93 67 47 81 123 154 165 158 159 130 185 210 88 69 53 177 124 62 95 93 114 119 115 85 131 127 129 116 110 132 117 104 121 103 112 144 105 91 102 132
109 97 67 68 90 115 121 87 81 87 99 123 132 141 115 103 170 107 125 113 96 69 283 134 147 91 101 137 163 140 65 76 117 105 83 164 117 110 97 134 98 139 82 85 91 93 133
120 113 80 56 90 110 101 97 74 86 122 148 150 137 149 197 171 145 114 112 111 249 321 136 122 105 110 109 119 127 97 84 112 108 100 107 89 85 101 100 92 121 62 45 64 86 111
104 113 99 69 65 92 101 91 59 81 112 135 144 136 162 188 190 135 129 147 259 384 219 196 185 117 89 127 155 131 111 122 135 126 127 104 99 95 101 115 74 91 81 101 107 59 86
80 104 106 85 83 97 97 87 69 88 99 132 127 138 176 228 178 148 183 299 288 306 238 141 97 89 122 137 145 131 135 129 102 109 124 131 104 119 133 153 130 116 110 135 153 119 114
71 66 86 99 76 92 100 98 86 75 103 118 149 193 169 155 146 154 256 291 227 174 193 221 212 145 176 181 153 149 121 139 132 73 109 116 149 124 110 61 66 119 87 168 101 67 94
78 64 73 90 105 98 103 108 92 79 95 121 194 198 207 150 121 137 251 208 221 229 242 266 217 213 176 191 182 143 140 134 131 119 95 132 151 120 90 71 57 82 134 94 98 133 112
80 79 80 94 101 114 102 80 96 89 114 147 212 253 218 129 82 216 368 251 188 196 211 246 238 249 229 213 162 153 139 141 118 136 99 100 108 104 77 66 64 62 75 111 128 128 122
100 92 76 90 105 125 107 73 87 98 113 171 296 303 202 214 366 319 276 228 241 219 237 243 213 219 177 174 184 202 158 157 120 113 118 111 99 69 44 66 85 62 80 101 140 123 156
79 83 100 79 102 113 108 69 87 79 133 233 318 323 236 234 297 267 348 332 268 255 213 228 219 193 174 177 175 140 109 137 136 117 116 87 86 74 26 10 39 78 161 188 154 152 114
48 90 102 94 95 125 108 86 69 83 90 216 359 350 320 292 285 299 325 261 306 311 225 171 150 127 133 138 145 113 115 145 143 115 121 99 78 64 67 122 144 109 97 97 82 142 78
81 65 96 104 98 116 88 87 80 58 68 215 381 332 257 258 251 245 223 206 255 252 192 133 121 101 95 109 102 121 104 116 115 114 78 78 65 47 36 36 45 57 71 46 66 75 87
67 15 65 64 64 90 90 109 118 54 99 209 276 301 274 269 131 115 185 215 132 170 120 117 110 59 61 69 75 78 98 97 96 85 71 91 72 82 91 39 56 58 84 59 36 22 38
127 61 59 79 103 81 56 76 98 98 171 193 180 281 228 195 150 143 174 181 146 123 162 112 60 94 77 66 104 115 100 112 100 82 68 71 59 45 42 71 72 73 49 -15 19 66 66
70 92 61 118 133 165 102 69 89 138 124 209 228 225 275 263 153 123 104 111 127 65 111 94 99 142 116 101 93 85 79 65 57 56 50 67 38 64 85 78 83 169 116 42 45 8 2
86 96 49 63 94 165 190 140 56 125 122 186 217 246 190 235 194 106 122 88 76 87 100 106 98 108 100 93 81 71 48 61 44 31 40 48 60 103 102 68 67 52 47 58 48 39 63
75 81 151 70 52 162 134 125 101 127 157 249 156 153 294 190 142 113 75 53 101 67 70 64 99 88 126 120 100 83 76 91 73 70 64 24 5 69 75 95 86 129 120 101 78 42 123
65 100 117 117 98 98 132 120 130 118 213 320 241 159 248 252 208 121 103 73 119 114 101 114 94 99 69 98 99 95 96 103 97 88 99 105 74 57 65 89 132 108 129 85 66 89 82
135 198 279 337 286 204 174 211 217 163 226 279 270 116 39 204 146 176 158 139 136 109 102 123 127 155 123 110 118 102 103 81 89 67 69 66 99 110 100 132 113 132 111 60 91 109 60
143 194 263 227 171 311 157 144 205 212 209 233 250 100 103 107 79 107 67 104 115 85 114 105 172 94 109 98 104 116 98 111 65 77 49 89 65 101 125 109 129 113 58 82 105 44 30

GFSGBSN_con_3kmhel_147.txt.gz
Helicity
72 74 80 76 75 69 66 64 64 62 60 58 55 59 49 58 44 33 31 36 28 49 61 54 25 34 34 42 46 69 30 6 -7 32 51 50 53 38 49 47 34 28 58 44 39 29 24
85 85 86 91 88 80 73 68 71 68 72 68 68 80 65 56 57 44 47 57 53 52 33 46 33 27 14 41 74 61 24 17 39 48 45 53 44 43 34 40 39 66 37 25 25 22 45
207 116 95 113 106 99 96 86 86 96 110 110 107 103 93 78 78 61 60 57 67 60 22 15 8 -7 8 27 70 60 43 41 49 65 48 39 35 32 54 44 60 38 36 35 46 73 82
200 205 222 219 185 218 207 200 209 211 222 216 163 133 109 77 83 73 77 69 68 66 22 4 3 -7 21 79 73 47 53 62 44 28 45 28 17 27 43 69 48 45 47 44 168 78 104
234 198 217 221 182 200 180 163 199 188 152 179 135 153 121 84 78 77 74 66 60 62 28 9 -16 3 -15 113 70 79 67 98 74 37 24 28 18 30 49 30 51 87 68 67 75 117 120
164 167 178 177 200 175 181 174 150 159 156 136 99 127 136 71 64 68 69 67 64 55 27 21 49 65 39 93 136 98 88 83 54 35 9 16 43 42 51 43 83 138 110 73 70 98 58
137 164 163 126 123 145 207 210 204 147 118 105 107 104 102 92 86 61 84 82 43 14 33 37 136 101 134 103 59 87 100 65 34 38 44 54 65 44 31 205 170 87 80 95 91 90 170
138 148 145 144 110 83 55 110 58 83 72 71 80 120 116 101 114 100 127 156 176 174 116 98 58 76 68 135 162 69 89 98 69 67 74 88 46 77 239 144 103 84 87 89 86 112 101
120 100 112 107 52 72 51 13 85 61 79 104 104 120 139 112 115 124 80 126 116 146 136 94 79 102 57 94 88 56 79 82 88 81 68 81 103 219 143 117 109 86 93 144 121 85 96
110 102 111 108 99 93 92 115 161 156 127 86 103 80 92 120 113 82 77 113 144 85 153 139 162 170 177 173 152 42 154 62 91 92 59 111 149 155 86 94 112 81 225 112 85 89 88
113 104 107 112 100 78 101 148 137 105 81 65 71 77 98 62 156 71 118 92 75 50 206 189 294 210 176 182 281 144 108 139 110 111 142 156 113 89 84 118 161 130 182 79 61 64 68
113 99 120 111 106 69 95 130 133 118 99 101 123 138 125 150 122 187 104 63 26 178 272 194 171 128 130 123 180 208 164 121 186 137 67 130 128 112 96 123 66 112 28 28 37 44 116
122 103 102 117 99 65 74 118 118 100 77 91 121 143 174 172 161 137 77 96 249 277 233 243 190 136 97 114 112 94 116 97 117 132 61 84 66 99 88 53 50 31 43 121 165 123 91
123 113 103 103 102 80 80 107 103 95 54 88 122 142 154 150 179 118 135 165 328 261 153 238 148 135 144 163 113 102 87 73 95 87 107 80 100 70 101 105 156 107 107 148 232 182 196
106 109 99 76 86 89 82 93 103 90 58 95 123 139 188 148 125 128 190 270 294 142 186 197 201 200 195 129 107 73 54 44 64 72 137 177 134 199 127 91 77 101 50 150 159 93 108
82 86 88 82 76 81 86 88 89 87 70 110 138 167 174 149 111 201 272 189 168 243 291 285 142 122 136 145 200 142 104 107 132 142 145 149 177 112 116 61 37 54 103 122 83 139 138
85 91 93 82 80 82 93 105 100 90 73 83 178 241 167 127 193 189 350 316 161 160 203 158 115 165 160 148 116 99 70 164 151 107 86 112 141 116 96 61 49 57 33 49 61 101 121
122 86 94 94 91 74 98 115 133 92 88 114 227 236 156 174 278 302 306 284 260 150 166 188 230 171 146 241 89 144 163 146 106 93 82 107 130 114 49 34 65 76 66 71 104 73 73
101 106 95 94 93 90 96 121 141 116 90 151 328 282 208 278 287 231 210 174 191 250 191 184 208 199 212 182 215 149 129 231 143 98 135 125 98 139 64 56 37 54 57 102 109 109 80
92 108 114 76 90 97 100 112 158 111 72 72 283 430 325 293 234 177 154 189 284 195 144 261 262 171 152 193 154 134 159 148 129 139 199 131 103 109 131 128 113 103 67 62 57 115 58
53 81 105 93 62 82 90 97 143 108 72 113 183 342 289 362 279 260 217 175 131 218 259 197 174 168 172 167 115 133 116 129 112 162 96 119 113 82 68 68 67 62 64 78 51 43 69
44 52 108 133 57 70 86 130 167 119 86 155 251 327 142 193 130 194 274 229 164 144 171 175 147 73 93 84 101 104 90 124 108 96 85 74 102 106 104 54 45 47 74 44 25 14 27
56 56 86 139 56 72 94 141 85 141 124 164 264 152 315 196 124 239 251 166 108 246 280 152 53 81 98 67 80 150 191 162 156 115 76 85 78 58 67 47 79 79 97 61 6 26 34
44 56 59 86 96 22 102 119 131 21 99 221 285 208 262 235 166 96 95 122 113 77 175 86 71 99 162 158 168 127 104 96 88 76 84 80 67 76 84 76 73 69 74 38 48 29 16
47 47 42 64 55 12 70 92 144 78 127 221 246 204 218 233 160 129 161 76 117 93 126 106 129 179 119 88 100 104 100 100 66 44 49 55 64 77 69 62 64 57 46 46 97 37 15
34 41 53 62 39 15 44 133 88 107 145 220 163 286 208 224 183 139 171 170 188 120 151 160 129 134 104 115 173 159 175 105 129 88 45 42 56 74 85 72 78 51 59 101 79 48 180
27 41 43 100 53 32 114 136 74 77 117 172 231 189 217 184 137 138 178 132 100 108 165 107 92 91 101 111 158 133 98 105 104 69 67 74 72 63 62 80 77 25 108 121 82 122 86
29 47 38 62 102 85 85 184 117 144 173 289 214 127 219 258 243 180 154 101 98 33 65 85 100 93 79 104 87 75 88 84 62 65 77 80 88 82 67 50 34 79 163 102 98 58 59
9 70 81 106 24 77 40 157 170 192 186 310 314 185 175 204 253 274 284 259 130 94 147 79 134 54 61 67 70 81 88 81 71 47 51 83 65 51 52 74 112 58 63 48 35 43 70

GFSGBSN_con_3kmhel_153.txt.gz
Helicity
86 81 79 77 74 73 73 70 65 66 65 56 56 52 42 37 29 26 26 23 26 28 24 16 19 37 18 41 40 60 -14 -31 -2 4 53 43 46 26 49 81 51 36 80 58 38 42 39
81 80 81 78 76 80 81 74 70 72 72 67 66 63 42 32 36 28 25 19 24 35 25 30 22 26 11 35 52 66 -22 11 3 17 50 47 35 34 42 26 54 20 27 13 24 27 64
157 144 79 78 75 73 74 76 71 71 71 76 76 69 63 45 36 37 14 28 25 28 29 38 38 20 43 137 54 10 4 7 35 27 48 58 42 48 43 39 44 25 35 12 17 36 97
194 156 117 174 127 74 80 75 75 78 110 148 134 119 97 69 50 34 18 35 39 38 35 38 58 61 85 139 16 1 6 27 19 31 59 65 64 37 47 31 43 51 68 93 64 79 211
64 75 96 141 97 92 84 108 146 158 160 149 119 145 89 73 33 65 55 39 45 52 32 55 73 81 62 26 34 22 5 6 20 46 49 51 65 67 73 62 72 72 118 141 87 192 251
37 63 70 79 153 163 59 91 78 120 160 177 157 145 147 118 118 91 67 41 74 91 46 54 63 109 32 41 44 65 43 16 23 97 66 76 92 103 95 121 91 104 21 89 81 38 99
77 73 97 117 116 110 132 161 169 163 134 143 175 193 171 205 169 103 92 61 83 104 48 75 115 110 36 62 71 69 72 103 107 112 87 48 140 113 66 89 92 110 85 68 32 -3 53
70 75 100 105 109 90 98 81 68 71 104 113 100 109 123 147 153 105 115 92 101 81 37 51 67 55 48 -27 101 22 95 128 115 95 79 114 120 54 84 100 139 109 95 62 34 35 82
160 131 103 95 92 83 74 61 66 106 106 113 119 141 151 180 103 67 70 62 107 174 102 67 158 178 139 94 83 59 149 152 159 131 94 124 134 59 175 159 171 117 124 98 113 150 137
154 178 186 156 97 91 89 79 53 56 83 128 117 158 159 180 112 108 99 125 154 137 76 76 105 72 35 73 132 94 56 121 257 134 94 134 79 62 53 180 184 149 114 258 238 223 164
227 200 167 145 146 143 131 126 88 73 69 92 117 142 169 145 198 133 129 105 134 125 122 106 197 110 79 129 155 104 86 43 114 169 175 252 134 128 141 206 194 171 203 270 174 137 135
212 186 172 161 134 122 128 119 100 85 70 96 117 114 138 158 108 64 118 35 143 177 192 182 163 159 187 92 188 209 242 206 167 106 108 61 81 206 239 239 278 308 206 130 114 128 215
194 190 166 145 131 115 102 99 101 96 95 86 115 127 130 175 171 155 125 112 329 329 258 165 178 194 164 188 195 207 212 222 263 294 202 98 86 190 230 280 244 182 197 288 244 274 172
163 170 170 154 125 111 101 104 96 104 85 71 99 128 106 133 130 228 189 288 410 405 267 335 304 196 217 153 154 143 215 174 162 196 272 253 355 167 282 251 194 222 154 255 289 284 188
167 180 178 155 134 114 102 87 88 101 91 84 116 105 110 115 95 194 293 410 555 360 310 165 261 226 225 127 188 171 209 152 115 48 237 301 267 142 243 196 171 197 152 124 228 222 205
101 126 163 178 155 125 96 77 81 89 89 89 109 130 111 103 154 203 305 310 350 253 184 200 276 288 229 203 210 216 178 121 57 25 78 179 306 144 154 185 182 162 92 219 226 219 176
84 90 109 143 161 134 90 82 77 79 98 101 129 141 97 166 213 275 337 330 138 142 164 286 229 250 236 170 133 205 191 90 51 144 187 245 249 223 188 273 245 140 127 128 127 179 224
69 69 77 87 129 148 118 97 80 75 120 185 183 173 110 184 358 343 280 354 212 233 191 172 118 133 170 139 179 190 164 113 97 80 185 145 237 244 167 174 102 78 63 132 230 190 173
61 58 58 76 89 120 134 119 98 79 152 274 254 176 141 158 324 354 264 168 211 223 148 204 262 165 78 138 161 152 170 86 137 107 140 166 256 242 230 126 169 126 150 147 132 185 211
62 57 56 63 74 91 116 133 124 91 119 224 283 285 256 216 215 228 207 151 179 159 115 154 157 127 183 182 196 170 165 260 196 178 257 222 190 192 193 180 153 219 232 180 167 99 87
57 51 58 74 81 79 94 108 133 111 87 220 190 292 257 235 177 211 220 204 104 87 78 101 113 96 217 201 92 185 200 148 139 173 204 180 207 232 201 182 176 227 171 180 117 91 142
50 51 53 65 79 79 85 101 124 119 93 186 295 198 201 273 201 214 171 207 112 96 116 109 98 164 184 188 284 285 104 187 130 150 155 213 234 241 230 171 130 76 90 102 111 112 106
61 59 63 69 76 74 71 90 105 130 123 138 152 256 206 195 171 204 178 124 121 129 77 103 88 178 209 132 106 35 87 136 186 123 134 178 233 255 175 104 100 113 118 104 101 113 115
49 57 69 74 69 71 70 81 89 103 108 94 172 228 260 128 137 161 154 91 76 95 127 130 134 196 131 65 343 122 210 236 171 185 148 180 177 199 160 157 163 142 87 74 69 72 76
52 59 52 56 67 59 52 62 75 72 104 94 50 206 233 174 105 71 87 133 60 53 111 111 116 122 131 164 105 201 309 320 257 189 243 183 218 225 160 163 127 88 105 73 75 105 31
47 42 41 40 52 63 56 56 67 73 80 105 56 144 232 261 126 133 121 111 101 186 186 171 124 26 167 229 321 308 261 225 230 185 138 168 206 218 220 221 164 80 67 89 109 173 186
41 36 36 35 40 45 55 53 60 66 65 89 24 7 227 283 103 76 117 148 186 222 182 143 204 182 133 207 219 288 288 235 197 166 194 184 223 222 242 243 234 171 52 51 165 93 121
30 28 39 37 30 33 44 44 46 55 61 85 0 60 179 290 145 328 261 253 289 309 286 211 227 249 152 161 168 136 131 129 161 148 159 156 122 126 157 169 98 105 86 189 140 71 86
23 16 28 36 30 24 36 34 39 55 62 78 38 84 148 201 135 294 338 170 260 59 175 36 4 59 71 114 141 134 138 138 101 102 50 165 184 173 137 118 58 58 122 130 130 139 130

GFSGBSN_con_3kmhel_156.txt.gz
Helicity
93 89 88 85 87 78 77 71 70 62 64 61 57 50 53 51 38 36 27 18 15 11 8 10 12 4 -19 49 62 63 25 -32 19 19 20 14 2 41 79 64 55 31 52 47 70 41 46
99 92 85 81 85 81 82 75 70 67 70 64 57 55 44 51 44 32 25 18 10 3 12 9 15 -9 -12 60 62 84 56 20 21 24 38 28 6 13 34 33 35 14 8 10 -0 28 60
167 135 101 85 82 79 76 70 67 68 67 65 56 54 51 60 54 36 23 5 7 1 6 30 43 20 25 118 82 -32 -19 2 12 35 44 33 20 44 29 44 44 20 17 15 14 45 70
183 205 190 198 175 125 84 79 74 67 71 64 77 86 88 78 60 37 27 2 1 11 17 45 60 54 93 129 64 17 12 39 8 19 32 49 49 38 55 44 66 57 69 55 56 88 57
188 138 134 121 162 123 110 126 111 87 93 139 131 121 96 83 65 22 13 22 9 15 29 62 99 106 71 3 34 29 47 40 38 15 35 49 74 52 85 95 82 102 90 105 65 54 102
142 142 113 73 101 87 91 102 104 53 56 74 114 111 94 108 100 77 56 28 52 49 72 89 117 142 54 69 57 45 23 31 39 71 84 82 112 110 146 154 105 102 98 85 81 86 109
-2 7 43 73 84 86 98 87 89 125 105 142 193 174 160 133 128 103 67 47 70 53 97 94 111 147 24 69 19 59 65 67 95 113 115 91 140 97 66 99 126 171 130 93 50 22 63
36 34 46 40 79 128 62 53 50 70 75 91 85 73 69 111 114 83 77 71 43 56 10 66 114 114 140 135 58 -68 132 102 120 97 116 144 143 44 68 135 162 155 166 151 88 -22 -4
68 59 56 95 105 86 75 30 47 56 48 36 63 81 117 124 137 121 87 80 85 167 74 48 197 150 122 85 224 -13 147 155 179 136 134 173 129 118 138 147 184 188 197 156 138 123 112
142 125 109 98 92 118 153 150 117 70 53 40 46 66 105 98 119 145 92 104 110 60 18 3 55 40 51 71 101 63 70 210 214 108 144 127 82 74 49 131 151 165 179 167 203 225 173
239 233 206 182 160 121 123 134 133 138 123 118 119 149 135 136 161 148 98 133 146 103 80 66 72 16 33 63 87 81 106 189 123 206 194 181 172 169 179 109 111 174 292 263 230 219 215
224 212 218 201 189 170 164 148 139 115 92 93 111 138 171 191 182 202 140 174 243 218 223 210 92 73 134 119 202 179 195 202 162 156 178 101 114 143 144 161 181 235 268 237 218 232 218
169 178 173 176 174 160 149 121 114 106 88 97 96 109 152 178 180 162 177 291 293 278 255 152 127 141 144 175 169 200 210 240 263 309 217 162 92 70 95 192 199 245 302 291 286 332 257
183 175 182 176 158 128 112 110 101 89 78 94 97 117 139 144 169 170 237 334 295 294 302 365 305 304 224 213 201 183 234 230 237 272 268 229 271 131 199 222 285 242 232 283 252 221 267
169 191 201 208 182 170 142 115 95 85 88 84 125 118 123 84 109 151 346 452 443 431 363 327 293 276 228 214 172 172 194 207 151 166 228 196 169 131 150 251 236 317 305 168 242 284 275
126 134 151 176 195 186 159 129 111 84 93 130 170 138 127 77 122 202 300 296 367 359 371 315 305 288 318 307 200 164 154 129 140 102 148 176 209 165 196 263 291 222 217 309 324 312 248
92 95 99 102 126 151 160 143 118 83 89 145 196 181 100 91 173 214 409 367 238 249 306 301 221 224 208 220 237 218 180 141 89 108 138 154 215 191 181 245 234 234 250 184 171 260 265
67 68 67 71 79 104 132 143 113 86 96 186 228 257 136 133 226 312 240 293 187 188 190 119 125 96 103 93 155 216 240 225 130 146 139 112 194 269 194 176 128 111 142 147 269 278 266
63 58 54 55 59 76 94 126 132 111 98 229 256 232 151 163 247 280 236 171 122 155 113 165 191 146 29 71 74 120 98 122 80 -64 82 94 236 312 309 220 173 212 172 180 197 218 243
59 64 59 54 50 57 70 94 117 126 91 168 253 273 226 201 228 152 178 149 149 116 93 118 158 156 127 109 120 92 104 125 198 79 105 138 230 261 249 213 225 315 259 240 222 289 258
61 61 63 59 58 64 68 76 106 116 123 137 133 197 303 261 205 173 193 210 117 123 155 185 129 90 118 83 91 103 101 101 151 237 286 229 198 301 268 231 196 136 155 196 192 193 209
48 53 57 62 58 55 61 77 86 111 113 145 151 192 254 195 200 144 146 118 145 119 150 95 120 70 109 106 118 116 149 164 200 199 149 300 309 266 158 153 130 141 159 135 117 149 142
55 50 49 49 43 42 52 67 83 101 110 144 132 203 186 199 180 195 152 93 88 113 104 80 83 92 82 77 138 194 95 178 143 161 123 158 130 146 125 135 138 159 154 174 158 107 100
89 62 52 44 38 37 40 60 68 95 96 150 100 106 141 110 252 150 141 76 71 105 128 114 74 69 82 42 151 164 152 180 139 106 163 179 206 178 179 218 150 145 110 108 83 88 76
99 81 56 43 42 45 44 57 59 70 83 133 84 51 24 56 152 137 -0 43 63 57 50 68 79 94 108 109 65 69 124 297 187 220 162 177 226 253 283 211 141 144 106 68 112 86 85
113 77 53 46 52 62 59 65 59 56 74 130 84 110 56 -78 40 115 133 74 95 120 85 112 135 145 141 99 25 43 104 197 288 217 172 230 213 300 214 185 130 50 35 6 96 136 120
70 58 50 52 46 43 43 45 59 59 59 104 87 96 132 58 -59 71 135 107 65 163 122 135 205 180 197 152 138 97 178 221 213 213 288 308 265 193 193 179 139 143 101 63 128 101 149
72 60 57 53 42 35 38 41 42 53 52 80 101 94 120 84 -11 17 45 105 148 203 196 142 168 140 116 173 163 160 136 260 220 140 184 244 194 226 248 201 116 128 121 77 67 120 130
73 66 57 51 39 32 38 34 41 55 52 66 100 79 91 109 77 44 36 82 68 196 273 205 157 137 108 168 192 155 140 134 110 120 124 144 201 204 171 130 117 68 31 58 126 189 211

GFSGBSN_con_3kmhel_159.txt.gz
Helicity
89 94 97 95 94 90 87 90 86 80 81 71 63 59 59 53 43 41 35 37 34 28 19 15 6 -6 -28 44 28 44 67 56 49 55 2 13 35 39 60 35 49 61 71 80 69 65 65
101 100 103 105 104 96 90 84 81 83 79 71 59 57 53 51 46 43 33 33 27 15 3 9 -4 -14 5 55 43 45 72 30 67 65 17 2 26 19 24 29 27 29 29 33 24 35 44
125 123 119 112 117 117 111 99 88 80 79 68 59 55 56 57 56 35 30 34 32 22 17 6 15 4 57 26 60 8 6 29 25 33 48 13 7 47 42 51 50 33 29 41 35 40 38
269 280 197 175 166 129 116 108 96 90 78 71 62 63 88 76 65 58 42 10 2 16 14 21 57 38 67 106 42 9 46 37 12 12 42 31 31 38 51 55 82 68 67 71 87 96 99
301 313 236 219 285 235 190 179 168 128 114 106 121 106 104 81 82 54 49 15 3 13 26 55 80 79 14 60 47 19 17 63 56 35 43 66 52 53 105 133 109 112 97 87 78 107 118
139 157 201 190 135 175 185 184 164 113 106 147 106 64 92 103 80 66 39 44 28 63 80 63 81 106 73 95 126 58 47 68 66 64 74 102 120 99 168 190 118 127 165 125 103 98 112
30 12 20 84 152 154 126 126 134 126 120 124 111 98 110 110 64 56 40 52 55 31 65 73 102 97 20 80 66 79 72 97 99 106 99 104 130 86 92 96 112 128 138 125 104 85 139
39 50 65 83 66 70 116 133 112 83 85 97 79 114 115 92 51 52 60 74 34 55 -38 23 97 131 151 202 85 -33 102 108 119 103 127 171 132 61 89 102 127 139 140 125 128 89 114
47 1 -0 62 55 82 85 79 73 47 90 114 72 90 56 71 99 71 85 78 97 103 61 36 143 148 144 102 198 -73 141 217 161 126 141 156 124 116 120 109 130 152 188 216 160 130 101
159 166 99 70 107 119 93 99 94 92 86 68 63 46 64 134 91 109 86 92 84 35 25 7 31 81 73 65 81 98 56 251 263 142 174 112 88 101 67 103 109 107 146 165 178 222 198
183 184 199 177 177 150 131 125 127 118 117 95 85 101 128 160 185 138 127 171 116 95 91 77 81 33 33 91 112 74 64 163 160 309 209 171 138 99 130 115 135 121 128 142 216 246 246
155 151 154 179 204 183 165 138 126 119 105 100 93 98 117 141 140 131 171 151 166 213 202 218 131 127 137 102 105 125 147 122 129 175 171 155 124 185 160 171 206 173 231 311 323 308 295
180 198 186 174 152 122 133 156 139 133 136 112 98 115 137 146 154 171 165 210 301 291 292 165 192 221 215 204 164 168 182 193 220 273 234 175 98 120 154 117 119 225 248 338 358 412 317
171 172 171 165 163 161 166 142 133 100 93 102 117 135 153 121 127 162 195 297 274 290 279 358 412 384 301 260 257 228 215 215 215 249 234 204 245 129 180 181 262 271 294 339 344 298 184
144 150 170 176 169 160 155 127 124 118 115 117 172 206 170 85 104 138 299 427 436 403 405 382 248 210 232 259 197 213 201 207 176 210 237 188 152 168 134 110 160 258 346 253 322 310 289
142 140 152 164 174 186 178 160 135 110 94 136 230 199 143 78 110 190 308 305 373 329 391 332 326 285 238 281 289 234 173 144 151 136 162 154 160 110 113 148 237 172 245 383 416 390 327
121 127 128 136 146 161 182 180 145 117 91 152 211 228 166 146 204 247 346 317 213 137 254 272 311 282 221 202 237 251 245 183 117 105 103 182 188 135 159 188 202 331 356 353 299 344 368
67 71 76 72 78 88 114 147 159 124 95 152 229 282 205 184 316 340 289 314 211 187 247 155 167 186 175 156 151 203 238 341 255 168 125 124 164 164 126 194 119 181 213 213 346 385 358
58 61 62 61 60 66 75 101 123 125 90 191 257 245 220 256 281 270 217 192 171 211 215 204 184 150 109 90 96 26 14 4 31 113 198 150 259 247 240 244 250 265 211 227 251 284 300
49 53 51 51 53 55 60 73 86 117 103 138 169 210 234 258 227 184 169 147 176 157 124 166 229 192 145 126 128 105 64 -39 21 -3 142 25 152 251 203 204 226 267 281 276 280 354 238
60 58 61 59 56 56 55 53 70 91 110 127 123 214 129 173 243 181 199 165 94 113 152 187 143 101 118 137 83 59 43 59 62 55 104 198 118 96 240 214 227 264 219 250 207 230 226
49 57 62 63 56 58 57 59 70 80 108 133 144 181 164 146 196 165 190 154 64 142 136 129 115 96 116 94 84 87 75 68 48 60 87 152 130 123 94 159 227 270 244 226 226 181 168
62 60 55 54 53 54 53 58 69 87 112 131 96 111 133 96 150 173 191 122 69 91 82 86 76 93 79 53 50 72 50 96 109 52 136 321 280 331 264 272 323 297 182 172 201 195 208
66 73 62 53 40 40 45 52 56 66 97 162 158 124 139 92 113 124 170 119 48 121 91 84 55 76 99 90 52 61 72 61 51 57 127 97 117 165 218 142 229 101 87 111 104 111 122
78 77 79 74 52 43 39 41 47 51 58 155 139 106 99 111 57 81 79 62 91 101 32 44 51 69 30 74 49 65 12 7 50 82 111 221 216 222 176 152 166 137 152 118 94 99 102
94 97 96 94 77 55 46 51 58 60 54 132 144 141 100 71 51 92 93 87 121 37 8 75 87 109 142 86 102 66 93 99 16 -3 -20 118 60 155 177 182 148 71 70 103 126 109 78
98 94 87 93 87 67 60 61 59 57 58 112 138 127 157 102 -2 80 38 -3 62 139 41 51 81 84 152 125 129 111 92 72 52 92 83 166 162 124 163 169 119 116 154 140 151 95 110
65 83 91 90 74 62 60 55 54 49 42 117 135 115 148 101 45 100 96 57 -39 21 87 53 80 75 120 197 149 146 132 130 121 102 194 248 248 248 266 203 104 109 133 159 102 111 78
59 71 77 66 63 54 50 51 45 35 38 70 131 124 116 123 53 20 25 -22 63 13 46 148 106 64 63 37 87 100 133 163 162 136 176 235 259 215 195 177 129 66 63 64 55 71 160